Temp
11 11 11 11 11 11 11 11 11 11 11 11 11 11 10 10 10 10 10 10 10 11 11 11 10 10 10 10 10 10 10 10 10 10 10 11 11 11 11 11 11 11
12 11 11 11 11 11 11 11 11 11 11 10 11 11 10 10 10 10 10 10 10 11 11 11 10 10 10 10 10 10 10 10 10 10 10 11 11 11 11 11 11 11
12 12 12 12 12 11 11 11 11 11 11 10 10 10 10 10 10 10 10 10 10 10 11 11 10 10 10 10 10 10 10 10 10 10 10 10 10 10 11 11 11 11
12 12 12 12 12 11 11 11 11 11 11 11 10 10 10 10 10 10 10 10 10 10 10 10 11 10 10 10 10 10 10 10 10 10 10 10 10 10 10 10 11 11
12 12 12 12 12 12 11 11 11 11 11 11 10 10 10 10 10 10 10 10 10 10 10 10 11 11 10 10 10 10 10 10 10 10 10 10 10 10 10 10 11 11
12 12 12 12 12 12 12 11 11 11 11 11 11 11 10 10 10 10 10 10 10 10 10 10 10 10 11 10 10 10 10 10 10 10 10 10 10 10 10 10 10 11
11 11 12 12 12 12 12 12 11 11 11 11 11 11 11 10 10 10 10 10 10 10 10 10 10 10 10 11 11 10 10 10 10 10 10 10 10 10 10 10 10 10
12 11 11 12 12 12 12 12 12 12 12 11 11 11 11 11 11 11 11 11 11 10 10 10 10 10 10 10 10 10 10 10 10 10 10 10 10 10 10 10 10 10
12 11 11 11 12 12 12 12 12 12 12 12 12 11 11 11 11 11 11 11 11 11 10 10 10 11 10 10 10 10 10 10 10 10 10 10 10 10 10 10 10 10
12 12 11 11 12 12 12 12 12 12 12 12 12 12 11 11 11 11 11 11 11 11 11 10 10 10 11 10 10 10 10 10 10 10 10 10 10 10 10 10 10 10
12 12 12 12 12 12 12 12 12 12 12 12 12 12 12 12 12 11 11 11 11 11 11 11 10 10 10 11 10 10 10 10 10 10 10 10 10 10 10 10 10 10
12 12 12 12 12 12 12 12 12 12 12 12 12 12 12 12 12 12 12 11 11 11 11 11 11 10 10 10 11 10 10 10 10 10 10 10 10 10 10 10 10 10
13 12 12 12 12 12 12 12 12 12 12 12 12 12 12 12 12 12 12 12 12 11 11 11 11 11 10 10 10 10 10 10 10 10 10 10 10 10 10 10 11 11
13 13 12 12 12 12 12 12 12 12 12 12 12 12 12 12 12 12 12 12 12 12 12 11 11 11 11 11 10 10 10 10 10 10 10 10 10 10 11 11 11 11
13 13 13 12 12 12 12 13 12 12 12 12 12 12 12 12 12 12 12 12 12 12 12 12 11 11 11 11 11 11 11 10 10 10 10 10 10 10 11 11 11 11
13 13 13 13 13 13 13 13 13 13 13 13 12 13 12 12 12 12 12 12 12 12 12 12 12 11 11 11 11 11 11 11 11 10 10 10 10 10 11 11 11 11
13 13 13 13 13 13 13 13 13 13 13 13 13 13 13 13 12 12 12 12 12 12 12 12 12 12 11 11 11 11 11 11 11 11 11 10 10 10 11 11 11 11
13 13 13 13 13 13 13 13 13 13 13 13 13 13 13 13 13 13 13 12 12 12 12 12 12 12 12 11 11 11 11 11 11 11 11 11 11 11 11 11 11 11
13 13 13 13 13 13 13 13 13 13 13 13 13 13 13 13 13 13 13 13 13 13 12 12 12 12 12 12 12 12 12 12 12 11 11 11 11 11 11 11 11 11
14 14 13 13 13 13 13 13 13 13 13 13 13 13 13 13 13 13 13 13 13 13 13 13 13 12 12 12 12 12 12 12 12 12 11 11 11 11 12 12 12 12
13 13 13 13 13 13 13 13 13 13 13 13 13 13 13 13 13 13 13 13 13 13 13 13 13 13 12 12 12 12 12 12 12 12 12 12 12 12 12 12 12 12
12 12 13 13 13 13 13 13 13 13 13 13 13 13 14 14 13 13 13 13 13 13 13 13 13 13 12 12 12 12 12 12 12 12 12 12 12 12 12 12 12 12
11 11 12 12 12 13 13 13 14 14 13 13 13 14 14 14 14 14 14 13 13 13 13 13 13 13 12 12 12 12 12 12 12 12 12 12 12 12 12 12 12 12
11 10 11 12 12 12 13 13 13 13 13 13 14 14 14 14 14 14 14 14 14 14 14 14 14 13 13 12 12 12 12 12 12 12 12 12 12 12 12 12 12 12
13 11 11 12 12 12 13 13 13 13 13 13 14 14 14 14 14 14 14 14 14 14 14 14 14 13 13 12 12 12 12 12 12 12 12 12 12 12 12 12 12 12
14 13 12 12 13 13 12 13 13 13 13 13 13 14 14 14 14 14 14 14 14 14 14 14 14 14 13 13 12 12 12 12 12 12 12 12 12 12 12 12 12 12
Height
3210 3212 3214 3216 3218 3220 3222 3224 3225 3227 3228 3230 3231 3233 3234 3234 3235 3236 3236 3237 3238 3239 3240 3240 3241 3242 3242 3243 3243 3243 3243 3244 3244 3244 3245 3245 3245 3246 3246 3247 3248 3248
3209 3211 3212 3214 3216 3218 3220 3222 3224 3225 3227 3229 3230 3232 3233 3233 3234 3235 3236 3237 3237 3238 3239 3240 3241 3242 3242 3243 3243 3243 3243 3244 3244 3245 3245 3245 3245 3246 3246 3247 3248 3248
3207 3209 3210 3212 3214 3217 3219 3220 3222 3224 3226 3227 3229 3230 3231 3232 3233 3234 3235 3236 3237 3238 3239 3240 3240 3241 3242 3242 3243 3243 3244 3244 3244 3245 3246 3246 3246 3246 3247 3247 3248 3249
3205 3207 3209 3211 3213 3215 3217 3218 3220 3222 3224 3225 3227 3229 3230 3231 3232 3233 3234 3235 3236 3237 3238 3239 3240 3241 3242 3242 3243 3243 3244 3244 3244 3245 3246 3246 3247 3247 3247 3248 3248 3249
3203 3205 3208 3209 3211 3213 3215 3216 3218 3220 3222 3224 3226 3227 3228 3229 3230 3231 3233 3234 3235 3236 3237 3238 3239 3240 3241 3242 3242 3243 3244 3244 3244 3245 3246 3247 3247 3247 3248 3248 3249 3249
3201 3203 3205 3208 3210 3211 3213 3214 3217 3218 3220 3222 3224 3225 3226 3228 3229 3230 3232 3233 3234 3235 3236 3237 3238 3239 3240 3241 3242 3243 3243 3244 3244 3245 3246 3246 3247 3247 3248 3248 3249 3250
3199 3201 3203 3205 3207 3209 3211 3213 3215 3216 3218 3220 3222 3223 3224 3226 3227 3229 3230 3231 3233 3234 3235 3236 3237 3238 3239 3240 3241 3242 3243 3243 3243 3244 3245 3246 3246 3247 3248 3249 3249 3250
3198 3199 3201 3203 3205 3206 3209 3211 3213 3215 3216 3218 3219 3221 3222 3224 3225 3227 3228 3230 3231 3232 3233 3234 3235 3236 3237 3238 3239 3241 3242 3242 3243 3244 3245 3245 3246 3247 3248 3249 3249 3250
3196 3197 3199 3200 3202 3204 3206 3209 3211 3213 3215 3216 3217 3219 3220 3222 3224 3225 3226 3228 3229 3230 3231 3232 3233 3235 3236 3237 3238 3239 3240 3241 3242 3243 3244 3245 3245 3246 3247 3248 3249 3250
3194 3195 3197 3198 3199 3201 3203 3206 3208 3211 3212 3214 3215 3217 3218 3220 3221 3223 3224 3225 3226 3228 3229 3231 3232 3233 3234 3235 3236 3238 3239 3240 3241 3241 3242 3243 3244 3245 3246 3247 3248 3249
3192 3193 3194 3196 3197 3199 3201 3203 3206 3208 3210 3211 3213 3214 3216 3217 3219 3220 3221 3222 3224 3226 3227 3229 3230 3231 3232 3233 3235 3236 3237 3238 3239 3240 3241 3242 3243 3244 3245 3245 3246 3247
3190 3192 3193 3194 3196 3197 3199 3201 3203 3205 3207 3209 3211 3212 3214 3215 3216 3217 3219 3220 3222 3224 3225 3227 3228 3229 3230 3232 3233 3234 3235 3236 3237 3238 3239 3240 3241 3242 3243 3243 3244 3246
3188 3190 3192 3193 3195 3196 3198 3199 3200 3202 3204 3206 3208 3210 3211 3213 3214 3215 3217 3218 3220 3221 3223 3225 3226 3227 3228 3230 3231 3232 3233 3234 3235 3236 3237 3238 3239 3240 3241 3241 3242 3243
3186 3188 3190 3192 3193 3195 3196 3197 3198 3200 3202 3204 3206 3207 3209 3210 3212 3213 3215 3216 3217 3219 3221 3222 3224 3225 3226 3227 3229 3230 3231 3232 3233 3234 3235 3236 3237 3238 3238 3239 3240 3241
3184 3186 3188 3190 3191 3192 3194 3195 3196 3198 3199 3201 3203 3204 3206 3208 3210 3211 3212 3213 3215 3216 3218 3219 3220 3222 3223 3225 3226 3228 3229 3230 3231 3232 3233 3234 3235 3236 3236 3237 3237 3238
3182 3184 3185 3187 3188 3190 3191 3193 3194 3196 3197 3198 3200 3202 3204 3206 3207 3208 3209 3210 3212 3213 3215 3216 3217 3219 3221 3223 3224 3225 3226 3228 3229 3230 3231 3231 3232 3233 3234 3235 3235 3236
3180 3181 3183 3184 3186 3188 3189 3191 3192 3193 3195 3196 3198 3199 3201 3203 3204 3205 3206 3208 3209 3210 3212 3213 3214 3216 3218 3220 3221 3222 3224 3225 3226 3227 3228 3229 3229 3230 3231 3232 3233 3233
3177 3179 3180 3182 3184 3185 3187 3189 3190 3191 3192 3193 3195 3197 3199 3200 3201 3202 3204 3205 3206 3207 3209 3210 3212 3214 3216 3217 3218 3219 3220 3221 3223 3224 3225 3225 3226 3227 3228 3229 3230 3231
3174 3176 3178 3179 3181 3183 3185 3186 3187 3188 3190 3191 3193 3195 3196 3197 3199 3200 3202 3203 3204 3205 3206 3207 3209 3211 3213 3214 3215 3216 3217 3218 3219 3220 3221 3222 3223 3224 3225 3226 3227 3227
3170 3172 3174 3177 3179 3180 3182 3183 3184 3185 3187 3189 3190 3192 3193 3194 3196 3198 3199 3200 3201 3202 3203 3205 3206 3208 3210 3211 3212 3213 3214 3215 3215 3216 3217 3218 3220 3221 3222 3223 3224 3225
3165 3168 3170 3173 3175 3177 3179 3180 3181 3182 3184 3186 3187 3189 3190 3192 3193 3195 3196 3197 3198 3199 3200 3201 3203 3205 3207 3208 3209 3210 3211 3211 3212 3213 3214 3215 3216 3217 3219 3220 3221 3222
3159 3162 3165 3168 3171 3173 3175 3177 3178 3180 3181 3183 3184 3186 3187 3189 3190 3192 3193 3194 3196 3196 3197 3198 3200 3202 3203 3205 3206 3207 3208 3208 3209 3209 3210 3211 3213 3214 3215 3217 3218 3219
3155 3156 3160 3164 3167 3169 3171 3174 3175 3177 3179 3180 3181 3182 3184 3185 3187 3189 3190 3191 3193 3193 3194 3196 3198 3199 3200 3201 3203 3204 3204 3205 3205 3206 3207 3208 3210 3211 3213 3214 3215 3216
3156 3154 3155 3159 3162 3165 3168 3170 3172 3174 3176 3177 3178 3179 3181 3182 3184 3186 3187 3188 3189 3190 3191 3193 3194 3196 3197 3198 3200 3201 3201 3202 3202 3203 3204 3205 3207 3208 3209 3211 3212 3213
3157 3156 3154 3155 3158 3161 3164 3166 3169 3171 3173 3174 3175 3176 3178 3179 3181 3182 3183 3185 3186 3187 3188 3189 3191 3193 3194 3195 3197 3197 3198 3198 3199 3199 3200 3202 3203 3205 3206 3207 3208 3209
3153 3155 3154 3154 3155 3158 3161 3163 3165 3167 3169 3171 3172 3173 3175 3176 3177 3178 3180 3181 3183 3184 3185 3186 3187 3189 3190 3192 3193 3194 3194 3195 3196 3196 3197 3199 3200 3202 3203 3204 3205 3206
Wind_Speed
23 23 22 21 20 20 21 21 21 19 18 16 16 14 13 13 14 14 13 12 13 12 11 10 9 9 9 8 7 6 6 6 6 6 6 6 6 6 6 6 5 5
24 24 24 23 22 21 22 22 21 21 19 18 17 16 15 16 16 15 15 14 13 13 13 12 11 10 9 9 8 7 7 6 5 5 5 5 5 5 5 5 5 5
25 25 25 24 23 22 22 22 22 21 21 20 20 19 18 17 17 16 16 15 13 13 13 13 13 11 10 10 9 9 8 7 6 6 6 5 5 5 5 5 5 6
25 25 25 24 23 23 23 23 23 22 22 22 22 21 20 19 18 17 17 16 15 14 14 14 14 13 12 11 11 10 10 9 8 7 7 6 6 6 6 6 6 8
25 25 25 24 24 24 25 26 25 24 23 23 23 23 22 21 20 19 18 17 16 15 15 14 14 14 14 14 13 12 11 11 10 9 8 7 7 7 7 7 8 9
26 25 25 25 25 25 26 27 27 26 25 24 24 24 23 23 22 21 20 19 18 17 16 15 14 14 14 15 14 13 13 13 12 11 10 9 9 8 8 8 9 9
28 27 26 26 25 26 27 27 28 27 26 25 25 25 25 25 24 23 22 21 19 19 18 17 16 15 15 15 15 15 15 14 14 13 12 12 11 10 9 9 10 10
29 28 28 27 27 27 27 27 28 28 27 26 26 26 26 26 26 25 24 23 22 20 19 19 18 17 17 17 17 16 16 16 16 15 14 14 13 12 11 10 11 11
31 30 30 30 29 28 27 27 28 28 28 27 26 26 26 27 27 26 26 25 24 22 21 21 20 19 19 19 18 18 17 17 17 17 16 15 15 14 14 13 13 12
32 32 32 32 31 30 29 28 28 28 28 28 27 26 27 27 27 27 27 26 25 24 23 23 22 21 21 20 19 19 18 18 18 18 17 17 16 16 16 16 16 15
34 33 33 33 32 31 30 29 28 29 29 29 28 28 27 27 27 27 27 27 26 25 24 23 23 23 23 22 21 20 20 19 19 19 19 18 18 18 19 19 19 18
35 35 34 33 33 32 31 30 30 30 30 30 29 29 28 28 27 27 27 27 26 26 25 24 24 25 24 23 22 22 22 21 21 20 19 19 19 20 21 21 21 20
35 35 34 33 33 32 31 31 31 31 31 31 30 30 30 30 29 28 28 28 27 27 26 25 25 25 26 25 24 23 24 24 23 22 21 20 20 21 22 23 23 23
34 35 35 34 33 33 32 32 32 32 32 31 31 32 32 31 31 30 29 29 28 28 27 26 26 26 26 26 25 25 25 24 24 23 23 22 22 22 22 24 25 25
33 34 35 35 34 34 33 32 32 32 32 32 33 33 32 32 32 31 31 31 30 29 28 27 27 27 27 26 26 26 25 25 24 24 23 23 22 22 22 23 25 25
32 33 34 35 35 34 33 33 32 32 32 33 33 33 32 32 32 32 32 31 30 29 28 28 28 27 26 26 26 26 26 25 25 24 24 23 22 22 21 22 23 24
32 33 33 34 35 34 34 33 32 32 32 32 32 32 32 32 32 32 32 32 31 30 29 28 27 26 26 26 26 26 26 26 26 25 25 24 24 22 21 21 22 22
31 32 32 33 34 34 34 34 33 33 32 32 31 31 31 31 31 31 31 31 30 30 29 28 27 26 25 25 26 26 26 26 26 26 26 26 25 23 22 21 21 22
31 31 32 32 33 33 33 34 34 34 33 32 31 31 30 30 30 30 30 30 30 29 29 28 27 25 25 25 26 26 26 26 26 26 27 27 26 24 22 22 22 22
31 31 32 32 32 32 33 33 34 34 34 33 32 32 31 30 29 29 28 28 28 28 27 27 26 25 25 25 26 26 26 27 27 27 27 27 26 25 23 22 22 23
28 30 31 32 32 32 32 33 34 34 33 33 33 33 32 31 30 29 28 27 27 27 26 26 25 24 24 25 26 26 27 27 28 28 28 28 27 26 24 23 23 23
26 25 26 27 29 31 33 33 33 33 33 33 33 33 33 32 31 30 29 28 27 27 26 25 24 23 23 24 25 25 27 28 28 28 28 28 28 26 25 24 24 24
28 24 22 22 24 28 32 33 33 33 33 33 33 33 32 32 31 30 29 29 28 28 26 24 22 22 23 24 24 25 27 28 29 29 29 28 27 26 25 25 25 25
33 29 25 22 22 26 29 31 32 33 32 32 33 33 32 31 31 30 29 29 28 28 27 25 23 22 23 24 24 25 27 29 29 29 29 28 27 26 25 25 26 26
35 31 27 24 23 24 26 28 30 31 32 32 33 33 33 32 31 30 29 28 28 27 27 26 24 23 24 25 25 26 27 28 30 30 30 29 28 27 26 26 26 26
36 32 29 28 25 24 25 26 27 29 32 33 33 33 33 33 32 31 30 28 28 27 27 26 25 24 24 25 26 28 28 29 30 31 31 30 29 28 27 27 27 26
Wind_Direction
216 215 215 213 210 209 210 214 220 224 225 224 222 221 220 221 222 220 219 218 214 209 206 203 201 196 193 195 190 189 203 209 208 202 186 173 167 162 162 162 158 160
218 217 216 215 212 210 211 213 216 219 222 226 225 221 218 221 223 222 220 219 216 214 212 211 210 205 201 203 199 199 210 212 205 200 187 172 163 160 163 164 156 155
219 220 219 217 215 214 214 216 218 217 217 221 225 225 222 224 226 226 225 224 220 217 215 214 214 212 211 211 209 206 212 214 209 205 199 187 180 177 174 170 155 145
218 220 220 220 218 217 218 220 221 220 217 217 221 224 225 226 229 230 231 231 229 225 222 219 217 215 214 217 217 212 211 215 215 212 210 206 201 195 189 181 166 152
218 219 220 220 219 218 220 222 222 222 220 217 219 223 225 227 230 234 235 235 235 233 231 229 225 220 217 218 221 219 215 216 217 215 214 215 214 207 197 189 179 167
217 218 218 219 218 217 219 221 223 224 222 218 218 222 225 227 230 234 237 237 237 237 237 236 235 232 227 223 222 223 222 220 220 218 216 217 218 214 203 192 185 179
216 217 218 218 217 216 217 218 222 224 223 220 219 220 223 226 230 233 237 238 239 240 240 239 238 239 239 234 228 225 227 227 226 222 220 222 222 219 213 202 193 188
217 217 218 219 219 218 216 216 219 223 224 223 220 219 220 224 227 231 235 237 239 241 243 243 240 238 241 241 236 230 229 231 231 228 226 228 228 226 223 218 209 201
219 219 219 219 220 219 217 216 218 221 224 225 223 220 220 222 224 228 232 235 237 238 241 244 244 241 240 241 240 237 233 232 232 232 230 230 231 231 230 228 222 215
222 221 220 220 220 220 219 218 218 220 223 225 225 223 222 222 223 226 229 232 235 236 237 240 244 245 243 242 241 240 237 235 234 234 233 233 233 233 234 233 229 223
223 223 222 221 221 220 219 218 219 220 222 225 226 226 226 225 225 226 228 231 233 235 235 237 240 244 245 244 243 241 240 238 237 236 235 235 235 235 236 236 234 229
225 225 225 224 223 222 220 220 220 220 222 224 225 227 228 228 228 229 230 232 233 234 235 235 237 241 244 245 244 242 240 239 239 238 236 236 236 237 237 237 235 233
226 227 227 227 226 225 223 222 221 222 223 224 225 227 228 229 230 231 233 234 235 236 237 237 236 238 242 244 245 243 241 239 239 239 239 239 240 240 241 240 238 235
228 228 229 229 228 228 226 225 224 223 224 225 226 227 228 229 231 232 234 236 237 238 239 239 239 239 240 242 243 244 244 242 241 241 241 242 242 242 243 243 241 239
230 230 230 229 229 229 228 227 226 225 226 226 227 228 228 229 230 231 233 235 237 238 239 240 240 240 241 242 243 244 245 245 244 243 243 243 243 243 243 244 244 242
231 231 231 230 230 230 230 229 229 228 228 228 229 230 230 230 230 231 232 234 235 237 238 239 240 240 241 243 245 246 245 245 246 245 244 244 244 245 245 245 245 244
230 231 232 232 232 231 231 231 230 230 230 231 231 231 231 231 232 232 233 234 235 236 237 238 238 239 240 242 245 247 247 246 245 245 245 245 246 247 247 247 247 246
230 231 232 233 234 234 233 233 233 233 233 233 233 233 233 233 233 234 235 235 236 236 237 237 237 237 238 239 242 245 247 247 246 245 245 245 246 247 247 246 245 245
231 231 233 234 235 236 236 236 235 235 235 236 236 236 236 235 235 235 236 236 237 238 238 238 237 236 236 236 238 241 244 245 245 245 245 246 247 247 246 244 243 242
231 231 232 233 235 236 237 238 238 238 238 238 239 239 239 238 238 238 237 237 238 239 239 238 236 235 235 235 236 238 240 243 244 245 245 245 246 247 245 243 242 241
232 233 233 233 234 235 237 238 239 240 240 240 241 241 242 242 241 240 240 239 239 240 239 238 236 234 234 235 235 236 238 240 243 244 245 245 245 246 245 243 242 242
232 234 235 234 234 235 237 239 239 240 240 240 241 242 243 243 242 242 242 241 241 241 241 239 236 233 233 234 235 236 236 238 241 243 245 245 246 246 245 244 243 243
239 235 234 235 235 235 237 239 240 240 240 240 241 242 243 244 244 244 244 243 243 243 243 241 236 232 232 233 234 235 236 238 240 242 245 246 247 247 247 246 245 246
251 246 238 236 234 233 235 238 239 240 240 241 242 243 244 245 246 247 246 245 245 245 245 244 239 233 231 231 233 235 236 237 239 240 243 245 246 246 247 247 247 247
254 254 247 240 234 231 233 236 237 239 240 240 241 242 243 245 246 246 246 245 245 245 245 245 242 237 233 231 230 233 236 237 238 240 241 243 245 246 246 248 249 248
248 250 249 244 236 231 231 232 234 236 238 239 240 241 242 244 245 245 245 244 245 244 244 244 243 240 237 233 230 231 234 237 239 240 241 242 244 245 246 248 249 249